Weather History for Mazar-I-Sharif, Afghanistan

Change the Weather History Date:

Tuesday, February 12, 2013

  Actual Average Record
Temperature  
Mean Temperature 51 °F -  
Max Temperature 60 °F 55 °F - ()
Min Temperature 42 °F 36 °F - ()
Degree Days  
Heating Degree Days 14    
Growing Degree Days 1 (Base 50)    
Moisture  
Dew Point 40 °F    
Average Humidity 66    
Maximum Humidity 93    
Minimum Humidity 42    
Precipitation  
Precipitation 0.00 in 0.05 in - ()
Sea Level Pressure  
Sea Level Pressure 30.08 in    
Wind  
Wind Speed 6 mph ()    
Max Wind Speed 20 mph    
Max Gust Speed -    
Visibility 5.8 miles    
Events      
T = Trace of Precipitation, MM = Missing Value Source: Averaged Metar Reports

Daily Weather History Graph

Daily Weather History Graph

Search for Another Location

Airport:

Trip Planner

Search our weather history database for the weather conditions in past years. The results will help you decide how hot, cold, wet, or windy it might be!

Date:

Astronomy

Feb. 12, 2013 Rise Set
Actual Time 6:52 AM AFT 5:38 PM AFT
Civil Twilight 6:26 AM AFT 6:05 PM AFT
Nautical Twilight 5:55 AM AFT 6:35 PM AFT
Astronomical Twilight 5:25 AM AFT 7:05 PM AFT
Moon 7:40 AM AFT (2/12) 8:05 PM AFT (2/12)
Length of Visible Light 11h 38m
Length of Day
10h 45m
Waxing Crescent, 5% of the Moon is Illuminated
Feb 12
Waxing Crescent
Feb 18
First Quarter
Feb 26
Full
Mar 5
Last Quarter
Mar 12
New

Hourly Weather History & Observations

Time (AFT) Temp. Windchill Dew Point Humidity Pressure Visibility Wind Dir Wind Speed Gust Speed Precip Events Conditions
12:20 AM 46.4 °F - 41.0 °F 81% 30.12 in 6.2 mi South 1.2 mph - N/A   Partly Cloudy
1:20 AM 44.6 °F - 41.0 °F 87% 30.12 in 6.2 mi WSW 2.3 mph - N/A   Scattered Clouds
3:20 AM 44.6 °F - 41.0 °F 87% 30.09 in 6.2 mi SW 2.3 mph - N/A   Mostly Cloudy
4:20 AM 44.6 °F - 41.0 °F 87% 30.09 in 6.2 mi Variable 1.2 mph - N/A   Mostly Cloudy
5:20 AM 44.6 °F 43.1 °F 41.0 °F 87% 30.09 in 6.2 mi West 3.5 mph - N/A   Mostly Cloudy
6:20 AM 42.8 °F 39.3 °F 41.0 °F 93% 30.09 in 5.6 mi West 5.8 mph - N/A   Mostly Cloudy
7:20 AM 44.6 °F 41.4 °F 41.0 °F 87% 30.12 in 3.7 mi West 5.8 mph - N/A   Mostly Cloudy
8:20 AM 44.6 °F 42.2 °F 41.0 °F 87% 30.12 in 3.7 mi West 4.6 mph - N/A   Mostly Cloudy
9:20 AM 48.2 °F - 42.8 °F 82% 30.12 in 5.0 mi SW 4.6 mph - N/A   Scattered Clouds
10:20 AM 51.8 °F - 42.8 °F 71% 30.12 in 5.6 mi WNW 3.5 mph - N/A   Partly Cloudy
11:20 AM 53.6 °F - 42.8 °F 67% 30.12 in 6.2 mi ENE 4.6 mph - N/A   Scattered Clouds
12:20 PM 59.0 °F - 42.8 °F 55% 30.09 in 5.6 mi ENE 9.2 mph - N/A   Scattered Clouds
1:20 PM 60.8 °F - 39.2 °F 45% 30.06 in 5.6 mi ENE 17.3 mph - N/A   Scattered Clouds
2:20 PM 60.8 °F - 39.2 °F 45% 30.04 in 6.2 mi East 17.3 mph - N/A   Mostly Cloudy
3:20 PM 60.8 °F - 37.4 °F 42% 30.04 in 6.2 mi East 19.6 mph - N/A   Mostly Cloudy
4:20 PM 60.8 °F - 37.4 °F 42% 30.04 in 6.2 mi East 16.1 mph - N/A   Mostly Cloudy
5:20 PM 59.0 °F - 35.6 °F 42% 30.04 in 6.2 mi East 12.7 mph - N/A   Mostly Cloudy
6:20 PM 57.2 °F - 37.4 °F 48% 30.01 in 6.2 mi East 13.8 mph - N/A   Mostly Cloudy
7:20 PM 57.2 °F - 37.4 °F 48% 30.04 in 6.2 mi East 9.2 mph - N/A   Mostly Cloudy
8:20 PM 57.2 °F - 39.2 °F 51% 30.04 in 6.2 mi ENE 13.8 mph - N/A   Mostly Cloudy
9:20 PM 55.4 °F - 39.2 °F 54% 30.04 in 6.2 mi SE 4.6 mph - N/A   Mostly Cloudy
10:20 PM 53.6 °F - 41.0 °F 62% 30.04 in 6.2 mi SE 3.5 mph - N/A   Mostly Cloudy
11:20 PM 53.6 °F - 41.0 °F 62% 30.06 in 6.2 mi SW 9.2 mph - N/A   Mostly Cloudy